Location: ?????
(55.8833°N, 37.6500°E)
Time: 05:53:27
(UTC+00:00)

STARLINK-22 - Pass Details

Date: 27 February 2020
Orbit: 388 x 401 km, 53.0° (Epoch: 09 April)

Event Time Altitude Azimuth Distance (km) Brightness Sun altitude
Rises 16:53:49 0° 270° (W) 2,355 8.5 -16.9°
Reaches altitude 10° 16:55:58 10° 265° (W) 1,488 7.0 -17.2°
Maximum altitude 16:59:10 45° 191° (S) 569 3.6 -17.7°
Enters shadow 16:59:43 40° 159° (SSE) 616 3.6 -17.7°
